This is the latest recevied weather packets stored in our database for station/object 4S6DRJ-13. If no packets are shown the sender has not sent any weather packets the latest 10 day(s).
| Time | Temp. | Humidity | Pressure | Rain* | Wind** | Luminosity | Snow |
|---|---|---|---|---|---|---|---|
| 1788288400 | 27.78° C | 83% | 1010.6 hPa | 0 mm | 1.34 m/s, 213° | 0 W/m² | - |
| 1788288339 | 27.78° C | 83% | 1010.7 hPa | 0 mm | 0.45 m/s, 219° | 0 W/m² | - |
| 1788288278 | 27.78° C | 82% | 1010.8 hPa | 0 mm | 0.89 m/s, 227° | 0 W/m² | - |
| 1788288217 | 27.78° C | 82% | 1010.8 hPa | 0 mm | 0.45 m/s, 190° | 0 W/m² | - |
| 1788288156 | 27.78° C | 82% | 1010.9 hPa | 0 mm | 0 m/s | 0 W/m² | - |
| 1788288095 | 27.78° C | 82% | 1010.8 hPa | 0 mm | 0 m/s | 0 W/m² | - |
| 1788288034 | 27.78° C | 82% | 1010.8 hPa | 0 mm | 0.45 m/s, 206° | 0 W/m² | - |
| 1788287973 | 27.78° C | 82% | 1010.7 hPa | 0 mm | 0.45 m/s, 219° | 0 W/m² | - |
| 1788287912 | 27.78° C | 82% | 1011 hPa | 0 mm | 0.89 m/s, 241° | 0 W/m² | - |
| 1788287851 | 27.78° C | 82% | 1010.9 hPa | 0 mm | 0.89 m/s, 193° | 0 W/m² | - |
| 1788287790 | 27.78° C | 82% | 1010.9 hPa | 0 mm | 0.45 m/s, 210° | 0 W/m² | - |
| 1788287729 | 27.78° C | 82% | 1010.8 hPa | 0 mm | 1.79 m/s, 275° | 0 W/m² | - |
| 1788287669 | 27.78° C | 82% | 1011.1 hPa | 0 mm | 0.45 m/s, 223° | 0 W/m² | - |
| 1788287606 | 27.78° C | 82% | 1010.9 hPa | 0 mm | 0.45 m/s, 214° | 0 W/m² | - |
| 1788287545 | 27.78° C | 82% | 1011 hPa | 0 mm | 1.79 m/s, 204° | 0 W/m² | - |
| 1788287499 | 27.78° C | 82% | 1011 hPa | 0 mm | 0.89 m/s, 20° | 0 W/m² | - |
| 1788287424 | 27.78° C | 82% | 1010.9 hPa | 0 mm | 0.89 m/s, 232° | 0 W/m² | - |
| 1788287362 | 27.78° C | 82% | 1010.9 hPa | 0 mm | 1.34 m/s, 190° | 0 W/m² | - |
| 1788287301 | 27.78° C | 82% | 1010.9 hPa | 0 mm | 1.34 m/s, 201° | 0 W/m² | - |
| 1788287240 | 27.78° C | 82% | 1011.2 hPa | 0 mm | 1.79 m/s, 213° | 0 W/m² | - |
| 1788287179 | 27.78° C | 82% | 1011.1 hPa | 0 mm | 0.45 m/s, 241° | 0 W/m² | - |
| 1788287118 | 28.33° C | 82% | 1011.1 hPa | 0 mm | 0.89 m/s, 216° | 0 W/m² | - |
| 1788287057 | 28.33° C | 82% | 1011 hPa | 0 mm | 0.89 m/s, 253° | 0 W/m² | - |
| 1788286996 | 28.33° C | 82% | 1010.9 hPa | 0 mm | 0.45 m/s, 216° | 0 W/m² | - |
| 1788286935 | 28.33° C | 82% | 1011.2 hPa | 0 mm | 0 m/s | 0 W/m² | - |
* Rain latest hour (hover to see other rain measurements)
** Current wind speed in m/s (hover to see current wind gust speed)